Tracking 19146 objects as of 24-Apr-2018
HD Live streaming from Space Station
objects crossing your sky now

THORAD AGENA D DEB

Track THORAD AGENA D DEB now!
10-day predictions


NORAD ID: 4177
Int'l Code: 1969-082AV
Perigee: 857.1 km
Apogee: 1,025.6 km
Inclination: 70.1 °
Period: 103.7 minutes
Semi major axis: 7312 km
RCS: 0.0743 m2 (small)
Launch date: September 30, 1969
Source: United States (US)
Launch site: AIR FORCE WESTERN TEST RANGE (AFWTR)

Note: This is SATELLITE DEBRIS
aabbcc
Your satellite tracking list
Your tracking list is empty




NASA's NSSDC Master Catalog

Two Line Element Set (TLE):
1 04177U 69082AV  18113.85512132 -.00000732  00000-0 -53727-3 0  9996
2 04177  70.0735  15.0961 0115192 268.7694  90.0210 13.88404338443102
Source of the keplerian elements: AFSPC